Waynesville-St. Robert Regional Forney field
KTBN : now visible

Airfield :











YOU CAN JOIN US ON...

 
LOGIN :

Register | Disclaimer

   EN    FR    IT 

 









Legend :    VFR   Marginal VFR   IFR   Intensive IFR   Very Intensive IFR
Visi :
Ceiling :
>= 8 km
>= 3000ft
5 to 8 km
1000 to 3000 ft
1500m to 5 km
500 to 1000 ft
800 to 1500m
200 to 500 ft
< 800m
< 200 ft
Symbols :   Thunderstorms  Fog  Heavy snow  Heavy precipitations  Wind > 20 kt






- Airport Elevation : 1159 ft
- IATA code : TBN


KTBN - Waynesville-St. Robert Regional Forney field

CURRENT METAR :
  • 180955Z AUTO 00000KT 10SM CLR 15/15 A3008 RMK AO2 SLP181 T01490147

EXPIRED METARs :
  • 180855Z AUTO 00000KT 10SM CLR 15/15 A3009 RMK AO2 SLP184 T01530151 50000
  • 180755Z AUTO 00000KT 10SM CLR 16/15 A3009 RMK AO2 SLP184 T01560154

TAF N/A
KZKC FIR / North America



MET'MAP, your aeronautical weather chart ! - Copyright ORBIFLY December 2007 - Disclaimer

ORBIFLY MET'MAP TEAM :

Programming & Development : Alexandra Zaïnal
Original concept : Baudouin d'Aumeries
Technical & hardware support : Manuel Goepfert
Assistance : Marc-Olivier Méhu




SOURCES & CREDITS :

   NOAA       Earth
Advisory